Location: Glens Falls
(43.3090°N, 73.6440°W)
Time: 18:01:39
(UTC-04:00)

Meteor 1-5 Rocket - Pass Details

Date: 24 February 2018
Orbit: 790 x 915 km, 81.2° (Epoch: 18 June)

Event Time Altitude Azimuth Distance (km) Brightness Sun altitude
Rises 19:16:42 0° 174° (S) 3,488 7.3 -18.8°
Reaches altitude 10° 19:19:10 10° 170° (S) 2,566 6.6 -19.3°
Maximum altitude 19:24:52 55° 94° (E) 1,087 4.4 -20.3°
Drops below altitude 10° 19:30:41 10° 19° (NNE) 2,615 6.6 -21.3°
Sets 19:33:13 0° 15° (NNE) 3,560 7.4 -21.8°
